Regional Weather Roundup
Issued by NWS

Home | Current Version | Previous Version | Graphics & Text | Print | Product List | Glossary On
Versions: 1 2 3 4 5 6 7 8 9 10 11 12 13 14 15 16 17 18 19 20 21 22 23 24 25 26 27 28 29 30 31 32 33 34 35 36 37 38 39 40 41 42 43 44 45 46 47 48 49 50
156
ASUS45 KBOU 051307
RWRCO

WEATHER ROUNDUP FOR COLORADO
NATIONAL WEATHER SERVICE DENVER/BOULDER CO
600 AM MST MON DEC 05 2016

NOTE: "FAIR" INDICATES FEW OR NO CLOUDS BELOW 12000 FEET WITH NO
SIGNIFICANT WEATHER AND/OR OBSTRUCTIONS TO VISIBILITY.

COZ001>005-013-030-031-051400-
...NORTHWEST COLORADO...

CITY           SKY/WX    TMP DP  RH WIND       PRES   REMARKS
CRAIG          FAIR      25  14  63 CALM      29.69F
HAYDEN         MOCLDY    30  12  47 NW5       29.68S WCI  25
MEEKER         MOCLDY    35  15  44 SW5       29.72F WCI  31
MOUNT WERNER   NOT AVBL
STEAMBOAT SPGS CLOUDY    27  19  73 E5        29.68S WCI  21
WALDEN           N/A     30  18  59 SW12      29.66F WCI  21
$$

COZ006>008-011-051400-
...WEST CENTRAL VALLEYS...

CITY           SKY/WX    TMP DP  RH WIND       PRES   REMARKS
GRAND JUNCTION MOCLDY    26  22  84 CALM      29.82R
MONTROSE       CLOUDY    29  20  69 VRB3      29.81F
EAGLE          CLOUDY    31  18  58 CALM      29.75S
RIFLE          CLOUDY    25  20  81 SW3       29.79F
DELTA          NOT AVBL
NUCLA          MOCLDY    25  16  68 S6        29.87F WCI  18
$$

COZ017>023-064>068-051400-
...SOUTHWEST COLORADO...

CITY           SKY/WX    TMP DP  RH WIND       PRES   REMARKS
DURANGO        FAIR      19  14  81 CALM      29.91F
CORTEZ         MOCLDY    23  20  88 CALM      29.91F
PAGOSA SPRINGS MOCLDY    16  15  96 CALM      29.93R
TELLURIDE      NOT AVBL
WOLF CREEK PAS MOCLDY    14  10  85 SW16G24   29.94S WCI  -2
$$

COZ009-010-012-014-032>034-037-058>063-051400-
...CENTRAL COLORADO...

CITY           SKY/WX    TMP DP  RH WIND       PRES   REMARKS
ASPEN          CLOUDY    32  18  56 N5        29.72F WCI  27
BUENA VISTA    CLOUDY    31  13  47 E9        29.73F WCI  23
COPPER MTN     LGT SNOW  25  14  63 MISG      29.73F
BERTHOUD PASS  SNOW      18   5  57 W25G49    29.68S VSB 1/2 WCI  -1
COTTONWOOD PAS CLOUDY    34  12  40 SE5       29.76S WCI  30
GUNNISON       FAIR      12   8  84 S3        29.85F
KREMMLING      CLOUDY    41  18  38 SW17G31   29.69F
LEADVILLE      CLOUDY    30  12  47 SW10      29.70F WCI  21
MONARCH PASS   CLOUDY    18  12  79 SW26G35   29.90F WCI  -1
SALIDA         FAIR      35  12  38 SW10G22   29.82S WCI  27
SUNLIGHT       CLOUDY    19  14  79 SW21G30   29.78F WCI   3
WILKERSON PASS FAIR      23  12  63 SW22G36   29.74F WCI   8
$$

COZ069>075-051400-
...SAN LUIS VALLEY/SANGRE DE CRISTO MOUNTAINS...

CITY           SKY/WX    TMP DP  RH WIND       PRES   REMARKS
ALAMOSA        FAIR       1  -3  83 N5        29.85F WCI  -9
LA VETA PASS   FAIR      23  12  63 NE29G45   29.76R WCI   6
SAGUACHE       MOCLDY    16   9  73 NW7       29.85F WCI   6
$$

COZ035-036-038>040-051400-
...NORTHERN COLORADO FRONT RANGE...

CITY           SKY/WX    TMP DP  RH WIND       PRES   REMARKS
DENVER INTL AP FAIR      32  16  51 SE5       29.58R WCI  27
DMNS CITY PARK   N/A     31  17  55 E9G16     29.57S WCI  23
AURORA         MOCLDY    37  15  41 S6        29.58S
FRONT RANGE AP NOT AVBL
ERIE MUNI ARPT FAIR      47  20  33 W21G28    29.55S
BOULDER MUN AP CLOUDY    50  23  34 W15       29.59S
CENTENNIAL     FAIR      39  15  37 E8        29.58S
BROOMFIELD     PTCLDY    52  18  25 W24G35    29.56F
FORT COLLINS   FAIR      48  21  34 SW17G25   29.59R
LONGMONT       CLOUDY    52  22  31 W13       29.62R
$$

COZ041-046-047-076>085-087-088-051400-
...PIKES PEAK/PALMER DIVIDE AND SOUTHERN FOOTHILLS...

CITY           SKY/WX    TMP DP  RH WIND       PRES   REMARKS
COLO. SPRINGS  MOCLDY    36  13  38 E6        29.63F
A. F. ACADEMY  FAIR      35  12  39 S7        29.62R WCI  29
SCHRIEVER AFB  NOT AVBL
ELLICOTT       FAIR     N/A N/A N/A SW10      29.62F
FALCON         FAIR      39  12  32 SW5       29.65S
FORT CARSON    FAIR      30  13  48 NW6       29.60F WCI  24
LIMON          FAIR      22  15  75 N6        29.59F WCI  14
MONUMENT HILL  FAIR      34  14  44 W7        29.65R WCI  28
TRINIDAD       FAIR      31  12  45 W10       29.67F WCI  22
$$

COZ042>045-048>051-090-091-051400-
...NORTHEAST COLORADO...

CITY           SKY/WX    TMP DP  RH WIND       PRES   REMARKS
GREELEY ARPT   FAIR      23  14  68 NW6       29.59S WCI  16
AKRON          FAIR      31  14  49 W10       29.56S WCI  22
BURLINGTON     FAIR      26  13  57 W10       29.59F WCI  16
WRAY           NOT AVBL
STERLING       FAIR      18  12  79 W6        29.56S WCI   9
HOLYOKE        FAIR      34  21  60 CALM      29.57R
FORT MORGAN    FAIR      24  14  65 W6        29.58S WCI  17
$$

COZ086-089-092>099-051400-
...SOUTHEAST COLORADO...

CITY           SKY/WX    TMP DP  RH WIND       PRES   REMARKS
PUEBLO         FAIR      24  14  65 S7        29.61F WCI  16
LA JUNTA       FAIR      25  15  66 N5        29.62F WCI  19
LAMAR          MIX PCPN  19  13  77 N7        29.61S WCI  10
SPRINGFIELD      N/A     32  18  56 VRB5      29.62F WCI  27
$$




USA.gov is the U.S. government's official web portal to all federal, state and local government web resources and services.